FW8535 Weather Reports


Display with metric or nautical units.
time (UTC)temp
F
wind
direction
speed
MPH
gust
MPH
rain 1hr
in
rain 24hr
in
rain mn
in
humidity
%
barometer
mb
20260508065101 51 244 3.0 6.0 0.00 0.00 0.00 58 1008.3
20260508064600 50 253 2.0 5.0 0.00 0.00 0.00 57 1008.3
20260508063553 49 250 3.0 8.0 0.00 0.00 0.00 57 1008.4
20260508063054 49 240 4.0 8.0 0.00 0.00 0.00 55 1008.3
20260508062552 49 240 3.0 8.0 0.00 0.00 0.00 54 1008.4
20260508062054 49 244 4.0 7.0 0.00 0.00 0.00 53 1008.3
20260508061552 50 254 4.0 7.0 0.00 0.00 0.00 53 1008.3
20260508061051 50 244 4.0 7.0 0.00 0.00 0.00 53 1008.5
20260508060551 50 251 3.0 7.0 0.00 0.00 0.00 51 1008.4
20260508060051 49 248 3.0 6.0 0.00 0.00 0.00 53 1008.6
20260508055551 49 263 4.0 6.0 0.00 0.00 0.00 52 1008.6
20260508055051 49 263 3.0 6.0 0.00 0.00 0.00 53 1008.7
20260508054554 49 263 4.0 6.0 0.00 0.00 0.00 53 1008.7
20260508053553 48 262 4.0 6.0 0.00 0.00 0.00 51 1008.8
20260508053056 48 262 3.0 6.0 0.00 0.00 0.00 51 1008.8
20260508052553 48 261 3.0 4.0 0.00 0.00 0.00 50 1008.9
20260508052050 48 261 3.0 4.0 0.00 0.00 0.00 50 1008.8
20260508051602 49 261 2.0 4.0 0.00 0.00 0.00 49 1008.7
20260508051050 50 261 2.0 4.0 0.00 0.00 0.00 48 1009.0
20260508050550 51 261 2.0 4.0 0.00 0.00 0.00 47 1009.0
20260508045549 50 261 3.0 6.0 0.00 0.00 0.00 48 1009.1
20260508045049 50 261 3.0 4.0 0.00 0.00 0.00 48 1008.9
20260508044554 51 261 2.0 4.0 0.00 0.00 0.00 46 1008.9
20260508043550 51 261 2.0 4.0 0.00 0.00 0.00 46 1008.9
20260508043050 51 259 2.0 4.0 0.00 0.00 0.00 46 1008.8
20260508042550 51 259 2.0 4.0 0.00 0.00 0.00 46 1008.7
20260508042050 51 259 2.0 4.0 0.00 0.00 0.00 46 1008.7
20260508041554 52 257 2.0 5.0 0.00 0.00 0.00 45 1008.8
20260508041050 53 258 2.0 5.0 0.00 0.00 0.00 45 1009.0
20260508040549 53 292 1.0 3.0 0.00 0.00 0.00 45 1008.9
20260508040057 53 292 0.0 0.0 0.00 0.00 0.00 46 1008.9
20260508035552 53 292 0.0 0.0 0.00 0.00 0.00 46 1008.9
20260508035049 52 292 0.0 0.0 0.00 0.00 0.00 45 1009.0
20260508034549 52 292 0.0 1.0 0.00 0.00 0.00 46 1009.1
20260508033550 51 292 1.0 2.0 0.00 0.00 0.00 45 1009.0
20260508033048 52 292 1.0 2.0 0.00 0.00 0.00 45 1009.2
20260508032547 52 292 1.0 2.0 0.00 0.00 0.00 44 1009.2
20260508032047 52 292 1.0 3.0 0.00 0.00 0.00 44 1009.0
20260508031546 52 292 2.0 3.0 0.00 0.00 0.00 43 1009.1
20260508031046 52 292 1.0 3.0 0.00 0.00 0.00 43 1009.0
20260508030546 52 292 1.0 3.0 0.00 0.00 0.00 42 1009.1
20260508030052 52 292 1.0 3.0 0.00 0.00 0.00 43 1009.0
20260508025545 52 292 2.0 3.0 0.00 0.00 0.00 42 1009.0
20260508025045 52 292 2.0 3.0 0.00 0.00 0.00 42 1009.1
20260508024545 52 292 1.0 3.0 0.00 0.00 0.00 42 1009.0
20260508023546 53 292 1.0 2.0 0.00 0.00 0.00 40 1008.8
20260508023045 54 292 1.0 3.0 0.00 0.00 0.00 38 1008.9
20260508022546 55 292 1.0 3.0 0.00 0.00 0.00 37 1008.7
20260508022048 57 292 2.0 3.0 0.00 0.00 0.00 34 1008.7
20260508021545 58 292 0.0 1.0 0.00 0.00 0.00 34 1008.8
20260508021044 59 292 0.0 1.0 0.00 0.00 0.00 33 1008.7
20260508020547 60 292 0.0 1.0 0.00 0.00 0.00 32 1008.7
20260508020044 61 293 0.0 1.0 0.00 0.00 0.00 31 1008.6
20260508015544 62 293 0.0 0.0 0.00 0.00 0.00 30 1008.7
20260508015044 63 293 0.0 1.0 0.00 0.00 0.00 30 1008.6
20260508014544 63 293 0.0 1.0 0.00 0.00 0.00 30 1008.6
20260508013548 64 293 1.0 4.0 0.00 0.00 0.00 29 1008.6
20260508013048 64 292 0.0 4.0 0.00 0.00 0.00 29 1008.7
20260508012548 64 265 1.0 5.0 0.00 0.00 0.00 28 1008.7
20260508012049 64 310 2.0 6.0 0.00 0.00 0.00 28 1008.5
20260508011548 64 283 2.0 8.0 0.00 0.00 0.00 28 1008.6
20260508011047 65 309 3.0 8.0 0.00 0.00 0.00 27 1008.6
20260508010547 65 309 2.0 8.0 0.00 0.00 0.00 27 1008.6
20260508010049 65 307 3.0 8.0 0.00 0.00 0.00 27 1008.7
20260508005547 65 284 2.0 8.0 0.00 0.00 0.00 27 1008.7
20260508005048 65 290 2.0 11.0 0.00 0.00 0.00 27 1008.7
20260508004552 65 323 5.0 11.0 0.00 0.00 0.00 27 1008.8
20260508003549 65 295 5.0 9.0 0.00 0.00 0.00 28 1008.7
20260508003049 65 317 4.0 13.0 0.00 0.00 0.00 28 1008.6
20260508002546 65 259 6.0 13.0 0.00 0.00 0.00 27 1008.8
20260508002045 65 348 5.0 10.0 0.00 0.00 0.00 28 1008.7
20260508001546 66 274 5.0 10.0 0.00 0.00 0.00 28 1008.7
20260508001045 66 257 5.0 13.0 0.00 0.00 0.00 28 1008.6
20260508000546 66 287 6.0 12.0 0.00 0.00 0.00 28 1008.6
20260508000047 67 345 4.0 10.0 0.00 0.00 0.00 28 1008.8
20260507235547 67 322 4.0 9.0 0.00 0.00 0.00 28 1008.7
20260507235046 67 298 4.0 9.0 0.00 0.00 0.00 27 1008.6
20260507234553 67 5 4.0 9.0 0.00 0.00 0.00 27 1008.6
20260507233544 67 326 3.0 8.0 0.00 0.00 0.00 27 1008.6
20260507233103 67 296 3.0 9.0 0.00 0.00 0.00 26 1008.6
20260507232543 67 320 5.0 9.0 0.00 0.00 0.00 25 1008.6
20260507232049 68 308 3.0 9.0 0.00 0.00 0.00 24 1008.6
20260507231544 67 288 3.0 10.0 0.00 0.00 0.00 26 1008.5
20260507231042 67 312 4.0 11.0 0.00 0.00 0.00 24 1008.6
20260507230545 67 285 4.0 11.0 0.00 0.00 0.00 25 1008.6
20260507230047 66 286 5.0 10.0 0.00 0.00 0.00 27 1008.6
20260507225542 65 300 4.0 10.0 0.00 0.00 0.00 26 1008.5
20260507225042 66 324 5.0 11.0 0.00 0.00 0.00 26 1008.6
20260507224541 66 344 4.0 11.0 0.00 0.00 0.00 26 1008.7
20260507223540 65 262 3.0 12.0 0.00 0.00 0.00 26 1008.7
20260507223054 65 279 4.0 12.0 0.00 0.00 0.00 26 1008.6
20260507222540 65 249 6.0 11.0 0.00 0.00 0.00 25 1008.8
20260507222038 65 286 5.0 12.0 0.00 0.00 0.00 26 1008.7
20260507221542 66 293 6.0 13.0 0.00 0.00 0.00 24 1008.8
20260507221040 66 269 5.0 13.0 0.00 0.00 0.00 24 1008.7
20260507220537 66 265 3.0 11.0 0.00 0.00 0.00 25 1008.8
20260507220040 66 270 5.0 14.0 0.00 0.00 0.00 23 1008.8
20260507215537 67 286 4.0 10.0 0.00 0.00 0.00 22 1008.8
20260507215036 68 292 6.0 14.0 0.00 0.00 0.00 22 1008.9
20260507214535 69 304 4.0 14.0 0.00 0.00 0.00 20 1009.0
20260507213542 69 221 2.0 12.0 0.00 0.00 0.00 21 1009.0
20260507213036 68 275 7.0 12.0 0.00 0.00 0.00 20 1009.2
20260507212539 67 349 4.0 12.0 0.00 0.00 0.00 21 1009.2
20260507212035 67 321 5.0 12.0 0.00 0.00 0.00 21 1009.4
20260507211546 67 306 4.0 9.0 0.00 0.00 0.00 20 1009.3
20260507211035 67 317 3.0 9.0 0.00 0.00 0.00 22 1009.4
20260507210535 67 271 5.0 9.0 0.00 0.00 0.00 21 1009.6
20260507210047 66 300 3.0 10.0 0.00 0.00 0.00 22 1009.6
20260507205534 67 360 5.0 10.0 0.00 0.00 0.00 20 1009.6
20260507205035 66 254 3.0 9.0 0.00 0.00 0.00 22 1009.6
20260507204542 65 265 4.0 9.0 0.00 0.00 0.00 22 1009.5
20260507203530 66 275 2.0 14.0 0.00 0.00 0.00 21 1009.6
20260507203030 67 292 5.0 14.0 0.00 0.00 0.00 20 1009.6
20260507202529 67 316 4.0 9.0 0.00 0.00 0.00 20 1009.6
20260507202031 67 300 4.0 9.0 0.00 0.00 0.00 20 1009.7
20260507201528 67 293 3.0 9.0 0.00 0.00 0.00 22 1009.8
20260507201028 67 327 3.0 10.0 0.00 0.00 0.00 21 1009.8
20260507200526 66 349 5.0 11.0 0.00 0.00 0.00 21 1009.7
20260507200027 66 315 4.0 11.0 0.00 0.00 0.00 21 1009.8
20260507195529 65 259 3.0 9.0 0.00 0.00 0.00 21 1009.8
20260507195027 66 323 3.0 9.0 0.00 0.00 0.00 20 1009.9
20260507194534 66 306 4.0 11.0 0.00 0.00 0.00 21 1009.9
20260507193528 65 315 2.0 9.0 0.00 0.00 0.00 21 1010.1
20260507193028 65 218 2.0 10.0 0.00 0.00 0.00 21 1010.1
20260507192527 65 313 4.0 10.0 0.00 0.00 0.00 21 1010.1
20260507192025 64 315 4.0 12.0 0.00 0.00 0.00 22 1010.0
20260507191524 64 234 3.0 13.0 0.00 0.00 0.00 20 1010.1
20260507191023 64 331 4.0 10.0 0.00 0.00 0.00 21 1010.2
20260507190523 64 250 6.0 10.0 0.00 0.00 0.00 22 1010.2
20260507190037 63 34 3.0 9.0 0.00 0.00 0.00 22 1010.2
20260507185525 63 315 4.0 12.0 0.00 0.00 0.00 21 1010.4
20260507185020 63 355 3.0 12.0 0.00 0.00 0.00 22 1010.3
20260507184527 63 323 4.0 11.0 0.00 0.00 0.00 23 1010.4
20260507183514 62 218 4.0 7.0 0.00 0.00 0.00 24 1010.5
20260507183015 61 146 1.0 5.0 0.00 0.00 0.00 24 1010.6
20260507182512 61 146 1.0 10.0 0.00 0.00 0.00 23 1010.8
20260507182012 61 140 5.0 12.0 0.00 0.00 0.00 23 1010.8
20260507181511 61 80 6.0 12.0 0.00 0.00 0.00 23 1010.8
20260507181010 60 238 3.0 10.0 0.00 0.00 0.00 24 1011.0
20260507180510 60 323 5.0 10.0 0.00 0.00 0.00 24 1011.0
20260507180012 60 222 4.0 11.0 0.00 0.00 0.00 23 1011.0
20260507175509 60 266 6.0 11.0 0.00 0.00 0.00 24 1011.1
20260507175008 60 190 5.0 10.0 0.00 0.00 0.00 24 1011.0
20260507174511 60 117 4.0 8.0 0.00 0.00 0.00 24 1011.1
20260507173513 59 213 5.0 9.0 0.00 0.00 0.00 24 1011.1
20260507173017 59 222 2.0 6.0 0.00 0.00 0.00 25 1011.1
20260507172506 59 323 3.0 5.0 0.00 0.00 0.00 24 1011.1
20260507172007 59 150 3.0 8.0 0.00 0.00 0.00 24 1011.2
20260507171505 58 182 2.0 8.0 0.00 0.00 0.00 24 1011.2
20260507171004 58 187 4.0 8.0 0.00 0.00 0.00 24 1011.2
20260507170504 59 183 3.0 7.0 0.00 0.00 0.00 24 1011.4
20260507170005 58 105 3.0 7.0 0.00 0.00 0.00 24 1011.3
20260507165502 58 124 2.0 5.0 0.00 0.00 0.00 24 1011.4
20260507165001 58 107 2.0 6.0 0.00 0.00 0.00 25 1011.5
20260507164502 57 140 1.0 7.0 0.00 0.00 0.00 25 1011.5
20260507163601 57 173 4.0 5.0 0.00 0.00 0.00 25 1011.4
20260507163101 56 202 0.0 6.0 0.00 0.00 0.00 26 1011.5
20260507162559 56 202 4.0 6.0 0.00 0.00 0.00 24 1011.5
20260507162058 56 198 2.0 6.0 0.00 0.00 0.00 25 1011.6
20260507161600 55 224 1.0 6.0 0.00 0.00 0.00 26 1011.6
20260507161059 55 221 3.0 6.0 0.00 0.00 0.00 27 1011.8
20260507160555 54 202 4.0 7.0 0.00 0.00 0.00 28 1011.8
20260507160053 54 223 3.0 8.0 0.00 0.00 0.00 29 1011.9
20260507155553 53 193 3.0 7.0 0.00 0.00 0.00 29 1011.8
20260507155051 53 190 5.0 7.0 0.00 0.00 0.00 30 1011.8
20260507154553 52 201 4.0 7.0 0.00 0.00 0.00 30 1012.0
20260507154149 51 209 2.0 6.0 0.00 0.00 0.00 32 1011.8
20260507153549 51 209 0.0 6.0 0.00 0.00 0.00 31 1012.0
20260507153047 51 205 2.0 5.0 0.00 0.00 0.00 32 1012.0
20260507152548 50 217 1.0 4.0 0.00 0.00 0.00 32 1012.0
20260507152047 50 256 1.0 3.0 0.00 0.00 0.00 32 1012.1
20260507151548 50 256 1.0 3.0 0.00 0.00 0.00 32 1012.0
20260507151049 50 258 0.0 3.0 0.00 0.00 0.00 32 1011.9
20260507150543 49 258 1.0 3.0 0.00 0.00 0.00 34 1011.9
20260507150045 49 263 0.0 3.0 0.00 0.00 0.00 34 1012.0
20260507145541 48 267 0.0 2.0 0.00 0.00 0.00 35 1012.0
20260507145041 47 271 0.0 3.0 0.00 0.00 0.00 35 1012.0
20260507144539 46 271 1.0 3.0 0.00 0.00 0.00 36 1012.1
20260507143541 45 271 0.0 3.0 0.00 0.00 0.00 38 1012.2
20260507143044 44 271 0.0 3.0 0.00 0.00 0.00 38 1012.1
20260507142539 44 271 0.0 2.0 0.00 0.00 0.00 39 1012.3
20260507142037 43 271 0.0 2.0 0.00 0.00 0.00 41 1012.2
20260507141536 42 271 0.0 3.0 0.00 0.00 0.00 41 1012.3
20260507141038 42 271 1.0 3.0 0.00 0.00 0.00 40 1012.2
20260507140536 42 271 1.0 3.0 0.00 0.00 0.00 40 1012.2
20260507140039 42 272 0.0 3.0 0.00 0.00 0.00 40 1012.2
20260507135535 42 273 0.0 3.0 0.00 0.00 0.00 41 1012.2
20260507135033 42 273 0.0 2.0 0.00 0.00 0.00 42 1012.2
20260507134533 41 273 0.0 3.0 0.00 0.00 0.00 43 1012.2
20260507133526 40 279 0.0 2.0 0.00 0.00 0.00 45 1012.1
20260507133027 40 279 0.0 2.0 0.00 0.00 0.00 45 1012.3
20260507132523 39 289 0.0 0.0 0.00 0.00 0.00 44 1012.1
20260507132022 38 289 0.0 0.0 0.00 0.00 0.00 45 1012.4
20260507131521 37 289 0.0 1.0 0.00 0.00 0.00 45 1012.3
20260507131019 36 289 0.0 1.0 0.00 0.00 0.00 47 1012.3
20260507130522 35 289 0.0 1.0 0.00 0.00 0.00 47 1012.4
20260507130018 34 289 0.0 0.0 0.00 0.00 0.00 50 1012.2
20260507125518 33 289 0.0 0.0 0.00 0.00 0.00 52 1012.3
20260507125017 32 289 0.0 0.0 0.00 0.00 0.00 52 1012.2
20260507124521 32 289 0.0 0.0 0.00 0.00 0.00 53 1012.2
20260507123525 30 289 0.0 0.0 0.00 0.00 0.00 55 1012.2
20260507123025 30 289 0.0 0.0 0.00 0.00 0.00 56 1012.1
20260507122525 29 289 0.0 0.0 0.00 0.00 0.00 57 1012.0
20260507122024 29 289 0.0 0.0 0.00 0.00 0.00 57 1012.0
20260507121524 29 289 0.0 0.0 0.00 0.00 0.00 57 1012.0
20260507121024 29 289 0.0 0.0 0.00 0.00 0.00 56 1011.9
20260507120523 28 289 0.0 1.0 0.00 0.00 0.00 55 1011.9
20260507120023 28 289 0.0 1.0 0.00 0.00 0.00 56 1011.8
20260507115523 28 289 0.0 1.0 0.00 0.00 0.00 56 1011.8
20260507115024 28 289 0.0 1.0 0.00 0.00 0.00 56 1011.9
20260507114530 27 289 0.0 3.0 0.00 0.00 0.00 56 1011.7
20260507113513 28 289 0.0 0.0 0.00 0.00 0.00 54 1011.9
20260507113033 28 289 0.0 0.0 0.00 0.00 0.00 55 1011.9
20260507112512 28 289 0.0 0.0 0.00 0.00 0.00 55 1011.8
20260507112012 28 289 0.0 0.0 0.00 0.00 0.00 54 1011.8
20260507111512 28 289 0.0 0.0 0.00 0.00 0.00 55 1011.9
20260507111011 28 289 0.0 0.0 0.00 0.00 0.00 55 1011.9
20260507110511 28 289 0.0 0.0 0.00 0.00 0.00 54 1011.8
20260507110015 29 289 0.0 0.0 0.00 0.00 0.00 53 1011.8
20260507105508 29 289 0.0 0.0 0.00 0.00 0.00 54 1011.9
20260507105008 29 289 0.0 0.0 0.00 0.00 0.00 53 1011.9
20260507104508 29 289 0.0 0.0 0.00 0.00 0.00 53 1011.9
20260507103508 29 289 0.0 0.0 0.00 0.00 0.00 53 1011.8
20260507103008 29 289 0.0 0.0 0.00 0.00 0.00 52 1011.9
20260507102506 30 289 0.0 0.0 0.00 0.00 0.00 50 1011.9
20260507102006 30 289 0.0 0.0 0.00 0.00 0.00 50 1011.8
20260507101513 31 290 0.0 0.0 0.00 0.00 0.00 50 1011.7
20260507101005 31 290 0.0 0.0 0.00 0.00 0.00 49 1011.9
20260507100504 31 290 0.0 0.0 0.00 0.00 0.00 49 1011.8
20260507100005 31 290 0.0 0.0 0.00 0.00 0.00 49 1011.9
20260507095503 31 290 0.0 0.0 0.00 0.00 0.00 49 1011.8
20260507095003 31 290 0.0 0.0 0.00 0.00 0.00 49 1011.7
20260507094503 32 290 0.0 0.0 0.00 0.00 0.00 48 1011.9
20260507093505 31 290 0.0 0.0 0.00 0.00 0.00 49 1011.8
20260507093101 32 290 0.0 0.0 0.00 0.00 0.00 48 1011.9
20260507092502 31 290 0.0 2.0 0.00 0.00 0.00 49 1011.9
20260507092000 31 290 0.0 2.0 0.00 0.00 0.00 49 1011.9
20260507091635 31 290 1.0 2.0 0.00 0.00 0.00 49 1011.9
20260507091105 30 290 0.0 1.0 0.00 0.00 0.00 49 1012.0
20260507090559 31 290 0.0 2.0 0.00 0.00 0.00 48 1012.0
20260507090057 31 290 0.0 3.0 0.00 0.00 0.00 46 1011.9
20260507085555 32 290 0.0 3.0 0.00 0.00 0.00 47 1012.0
20260507085054 33 290 2.0 3.0 0.00 0.00 0.00 46 1011.9
20260507084604 33 283 1.0 3.0 0.00 0.00 0.00 47 1011.9
20260507084153 33 283 0.0 2.0 0.00 0.00 0.00 46 1012.1
20260507083555 33 283 0.0 2.0 0.00 0.00 0.00 46 1012.0
20260507083052 33 283 0.0 2.0 0.00 0.00 0.00 47 1012.1
20260507082552 33 283 0.0 0.0 0.00 0.00 0.00 46 1011.9
20260507082050 33 283 0.0 0.0 0.00 0.00 0.00 45 1012.0
20260507081557 34 283 0.0 0.0 0.00 0.00 0.00 44 1011.9
20260507081052 34 283 0.0 0.0 0.00 0.00 0.00 44 1012.0
20260507080550 34 283 0.0 1.0 0.00 0.00 0.00 44 1012.0
20260507080050 35 283 0.0 3.0 0.00 0.00 0.00 44 1012.0
20260507075552 34 283 2.0 3.0 0.00 0.00 0.00 45 1012.0
20260507075049 34 284 1.0 3.0 0.00 0.00 0.00 46 1012.0
20260507074555 33 284 0.0 2.0 0.00 0.00 0.00 46 1012.1
20260507074148 33 284 0.0 2.0 0.00 0.00 0.00 45 1012.0
20260507073548 34 284 1.0 3.0 0.00 0.00 0.00 44 1011.9
20260507073052 34 284 1.0 2.0 0.00 0.00 0.00 44 1011.9
20260507072547 35 284 1.0 2.0 0.00 0.00 0.00 44 1011.8
20260507072050 35 284 0.0 3.0 0.00 0.00 0.00 44 1011.9
20260507071547 35 284 1.0 3.0 0.00 0.00 0.00 44 1011.8
20260507071046 35 284 0.0 4.0 0.00 0.00 0.00 44 1011.8
20260507070545 34 285 2.0 4.0 0.00 0.00 0.00 44 1011.8
20260507070046 34 319 0.0 2.0 0.00 0.00 0.00 44 1011.9
20260507065542 34 321 1.0 2.0 0.00 0.00 0.00 43 1011.9